Location: Invercargill
(46.4000°S, 168.3500°E)
Time: 04:30:00
(UTC+13:00)

IRAS Rocket - Pass Details

Date: 24 January 2019
Orbit: 848 x 877 km, 100.1° (Epoch: 21 February)

Event Time Altitude Azimuth Distance (km) Brightness Sun altitude
Rises 23:28:34 0° 161° (SSE) 3,496 7.9 -16.1°
Reaches altitude 10° 23:31:02 10° 156° (SSE) 2,547 7.1 -16.4°
Maximum altitude 23:36:36 57° 77° (ENE) 1,021 4.4 -17.0°
Enters shadow 23:39:51 25° 7° (N) 1,697 5.3 -17.3°
